This is the latest recevied weather packets stored in our database for station/object N7SHZ. If no packets are shown the sender has not sent any weather packets the latest 1 day(s).
| Time | Temp. | Humidity | Pressure | Rain* | Wind** | Luminosity | Snow |
|---|---|---|---|---|---|---|---|
| 1778031126 | 2.78° C | 99% | 1026.6 hPa | - | 1.79 m/s, 251° | 59 W/m² | - |
| 1778030822 | 2.78° C | 99% | 1026.9 hPa | - | 2.68 m/s, 279° | 132 W/m² | - |
| 1778030519 | 2.78° C | 99% | 1026.9 hPa | - | 4.02 m/s, 262° | 225 W/m² | - |
| 1778030217 | 2.78° C | 99% | 1026.7 hPa | - | 4.92 m/s, 271° | 248 W/m² | - |
| 1778029912 | 2.78° C | 99% | 1026.6 hPa | - | 5.81 m/s, 242° | 271 W/m² | - |
| 1778029611 | 2.22° C | 99% | 1026.5 hPa | - | 2.68 m/s, 232° | 293 W/m² | - |
| 1778029308 | 2.78° C | 99% | 1026.6 hPa | - | 6.26 m/s, 237° | 337 W/m² | - |
| 1778029005 | 2.78° C | 99% | 1026.6 hPa | - | 4.47 m/s, 228° | 362 W/m² | - |
| 1778028702 | 2.22° C | 99% | 1026.6 hPa | - | 6.71 m/s, 230° | 362 W/m² | - |
| 1778028398 | 2.78° C | 99% | 1026.6 hPa | - | 1.79 m/s, 227° | 390 W/m² | - |
| 1778028095 | 2.22° C | 99% | 1026.3 hPa | - | 9.39 m/s, 229° | 408 W/m² | - |
| 1778027792 | 2.22° C | 99% | 1026.6 hPa | - | 7.6 m/s, 235° | 422 W/m² | - |
| 1778027488 | 2.22° C | 99% | 1027 hPa | - | 7.15 m/s, 229° | 441 W/m² | - |
| 1778027184 | 1.67° C | 99% | 1026.6 hPa | - | 5.81 m/s, 229° | 396 W/m² | - |
| 1778026880 | 1.67° C | 99% | 1026.7 hPa | - | 7.15 m/s, 233° | 151 W/m² | - |
| 1778026576 | 1.67° C | 99% | 1026.6 hPa | - | 4.47 m/s, 228° | 80 W/m² | - |
| 1778026274 | 1.67° C | 99% | 1027 hPa | - | 5.81 m/s, 255° | 293 W/m² | - |
| 1778025971 | 1.67° C | 99% | 1026.7 hPa | - | 4.47 m/s, 232° | 64 W/m² | - |
| 1778025668 | 1.67° C | 99% | 1026.7 hPa | - | 4.92 m/s, 241° | 178 W/m² | - |
| 1778025366 | 2.22° C | 99% | 1026.6 hPa | - | 5.81 m/s, 288° | 87 W/m² | - |
| 1778025063 | 2.22° C | 99% | 1026.7 hPa | - | 11.18 m/s, 258° | 164 W/m² | - |
| 1778024760 | 2.22° C | 99% | 1026.9 hPa | - | 6.71 m/s, 235° | 153 W/m² | - |
| 1778024456 | 2.22° C | 99% | 1026.7 hPa | - | 8.05 m/s, 235° | 115 W/m² | - |
| 1778024154 | 1.67° C | 99% | 1026.6 hPa | - | 8.49 m/s, 230° | 101 W/m² | - |
| 1778023851 | 2.22° C | 99% | 1026.5 hPa | - | 8.49 m/s, 236° | 126 W/m² | - |
* Rain since midnight (hover to see other rain measurements)
** Current wind speed in m/s (hover to see current wind gust speed)